Skip Page Navigation
NASA JPL Caltech
NASA Logo - Jet Propulsion Laboratory + View the NASA Portal
+ Near-Earth Object (NEO) Program
Search JPL
JPL Home Earth Solar System Stars & Galaxies Technology
JPL Solar System Dynamics
BODIES ORBITS EPHEMERIDES TOOLS PHYSICAL DATA DISCOVERY FAQ SITE MAP
JPL Small-Body Database Browser
Search: [ help ]  
269690 (1996 RG3)
Classification: Apollo [NEO, PHA]          SPK-ID: 2269690
Ephemeris | Orbit Diagram | Orbital Elements | Physical Parameters | Discovery Circumstances | Close-Approach Data ]

[ hide orbit diagram ]
Orbit Diagram
Note: Make sure you have Java enabled on your browser to see the applet. This applet is provided as a 3D orbit visualization tool. The applet was implemented using 2-body methods, and hence should not be used for determining accurate long-term trajectories (over several years or decades) or planetary encounter circumstances. For accurate long-term ephemerides, please instead use our Horizons system.
Orbit Viewer

Additional Notes: the orbits shown in the applet are color coded. The planets are white lines, and the asteroid/comet is a blue line. The bright white line indicates the portion of the orbit that is above the ecliptic plane, and the darker portion is below the ecliptic plane. Likewise for the asteroid/comet orbit, the light blue indicates the portion above the ecliptic plane, and the dark blue the portion below the ecliptic plane.

Orbit Viewer applet originally written and kindly provided by Osamu Ajiki (AstroArts), and further modified by Ron Baalke (JPL).


Orbital Elements at Epoch 2456400.5 (2013-Apr-18.0) TDB
Reference: JPL 13 (heliocentric ecliptic J2000)
 Element Value Uncertainty (1-sigma)   Units 
e .6048687029395806 8.1682e-08  
a 1.999836892463783 1.5099e-08 AU
q .7901981452284932 1.6375e-07 AU
i 3.570766983889723 2.7479e-05 deg
node 158.2751512664804 0.00020416 deg
peri 300.0394650475109 0.00020491 deg
M 274.209676043611 1.5633e-05 deg
tp 2456646.664882757383
(2013-Dec-20.16488276)
4.6489e-05 JED
period 1032.97614119871
2.83
1.1698e-05
3.203e-08
d
yr
n .3485075653172789 3.9468e-09 deg/d
Q 3.209475639699074 2.4231e-08 AU
  Orbit Determination Parameters
   # obs. used (total)      115  
   data-arc span      5316 days (14.55 yr)  
   first obs. used      1996-09-11  
   last obs. used      2011-04-02  
   planetary ephem.      DE405  
   SB-pert. ephem.      SB405-CPV-2  
   condition code      0  
   fit RMS      .49846  
   data source      ORB  
   producer      Otto Matic  
   solution date      2013-Apr-29 15:41:15  

Additional Information
 Earth MOID = .00271005 AU 
 T_jup = 3.587 
[ show covariance matrix ]

Ephemeris | Orbit Diagram | Orbital Elements | Physical Parameters | Discovery Circumstances | Close-Approach Data ]

Physical Parameter Table
Parameter Symbol Value Units Sigma Reference Notes
absolute magnitude H 18.58 mag .76568 13 autocmod 2.5c

269690 (1996 RG3)          Discovered 1996-Sep-14 by Spacewatch at Kitt Peak (691)
Reference: 20110418/Numbers.arcLast Updated: 2011-04-22

[ show close-approach data ]
Ephemeris | Orbit Diagram | Orbital Elements | Physical Parameters | Discovery Circumstances | Close-Approach Data ]
ABOUT SSD CREDITS/AWARDS PRIVACY/COPYRIGHT GLOSSARY LINKS
FirstGov 2013-Jun-19 04:50 UT
(server date/time)  
NASA Home Page
Site Manager:   Donald K. Yeomans
Webmaster  Alan B. Chamberlin